Regional Weather Roundup
Issued by NWS Charleston, SC

Current Version | Previous Version | Graphics & Text | Print | Product List | Glossary On
Versions: 1 2 3 4 5 6 7 8 9 10 11 12 13 14 15 16 17 18 19 20 21 22 23 24 25 26 27 28 29 30 31 32 33 34 35 36 37 38 39 40 41 42 43 44 45 46 47 48 49 50
000
ASUS42 KCHS 300427
RWRCHS

REGIONAL WEATHER ROUNDUP
NATIONAL WEATHER SERVICE CHARLESTON SC
1200 AM EDT SUN AUG 30 2015

NOTE: "FAIR" INDICATES FEW OR NO CLOUDS BELOW 12,000 FEET WITH NO
SIGNIFICANT WEATHER AND/OR OBSTRUCTIONS TO VISIBILITY.

NOT ALL STATIONS ARE QUALITY CONTROLLED BY THE NATIONAL
WEATHER SERVICE. USE DATA WITH CAUTION...ESPECIALLY
DEWPOINT OBSERVATIONS.

SCZ027-030-031-034>040-042>050-300500-
...SOUTHEAST SOUTH CAROLINA...

CITY           SKY/WX    TMP DP  RH WIND       PRES   REMARKS
N CHARLESTON   MOCLDY    75  70  84 NE3       30.13R
WATERFRONT PRK   N/A     79  75  87 NE5       30.10S
MOUNT PLEASANT FAIR      73  73 100 CALM      30.13R
JOHNS ISLAND   CLOUDY    77  73  88 CALM      30.12S
PINOPOLIS        N/A     81  68  65 CALM      30.04F
MONCKS CORNER  FAIR      72  68  88 CALM      30.13S
SUMMERVILLE    FAIR      70  70 100 CALM      30.14S
BEAUFORT MCAS  CLOUDY    77  72  84 NE5       30.12S
BEAUFORT ARPT  FAIR      79  75  89 CALM      30.11S
HILTON HEAD IS CLOUDY    81  75  83 N3        30.12S
WALTERBORO     CLOUDY    75  64  69 NE3       30.14S
ALLENDALE      MOCLDY    73  64  73 CALM      30.12F

...SOUTHERN MIDLANDS AND PEE DEE...

CITY           SKY/WX    TMP DP  RH WIND       PRES   REMARKS
GEORGETOWN     NOT AVBL
KINGSTREE      NOT AVBL
ORANGEBURG     CLOUDY    70  62  76 CALM      30.14S
BARNWELL       FAIR      73  63  68 CALM      30.14S
AIKEN          FAIR      70  55  60 CALM      30.18S
MANNING        FAIR      68  61  77 CALM      30.14S
COLUMBIA       CLOUDY    77  59  53 NE3       30.13F
SUMTER         CLOUDY    72  60  65 CALM      30.12F
FLORENCE       CLOUDY    72  65  78 CALM      30.14S
MYRTLE BEACH   CLOUDY    75  68  78 CALM      30.15F
N MYRTLE BEACH CLOUDY    75  69  81 N3        30.14R

$$

GAZ063-065-086>088-099>101-113>116-118-119-134>141-150-300500-
...SOUTHEAST GEORGIA...

CITY           SKY/WX    TMP DP  RH WIND       PRES   REMARKS
SAVANNAH ARPT  CLOUDY    76  72  87 NE6       30.11F
HUNTER AAF     CLOUDY    76  76 100 NE2       30.09S
FORT STEWART   DRIZZLE   75  72  88 CALM      30.08F
STATESBORO     DRIZZLE   72  72 100 CALM      30.12S
SYLVANIA       CLOUDY    72  71  98 CALM      30.14R
CLAXTON        NOT AVBL

...CSRA...CENTRAL AND FAR SOUTHEAST GEORGIA...

CITY           SKY/WX    TMP DP  RH WIND       PRES   REMARKS
THOMSON        CLOUDY    73  69  86 CALM      30.18S
AUGUSTA-BUSH   CLOUDY    72  66  81 CALM      30.12F
AUGUSTA-DANIEL CLOUDY    87  61  41 SE3       30.14S
SWAINSBORO     FAIR      75  70  83 E5        30.13S
VIDALIA        CLOUDY    72  70  94 E5        30.12S
EASTMAN        FAIR      74  74 100 E3        30.13R
HAZLEHURST     MOCLDY    75  75 100 E6        30.10S
ALMA           MOCLDY    74  72  93 CALM      30.11R
WAYCROSS       CLOUDY    77  77 100 CALM      30.10S
JESUP          FAIR      77  77 100 CALM      30.11R
BAXLEY         FAIR      75  73  94 E5        30.11R
BRUNSWICK      CLOUDY    77  75  94 CALM      30.10S
SAINT SIMONS   CLOUDY    81  74  79 E12       30.08F

$$

SCZ027-028-034-036>038-045-046-048>050-GAZ119-141-300500-
...LAKE AND SUPPLEMENTAL COASTAL OBSERVATIONS...

STATION/POSITION TIME  TEMP    WIND        PRES    WAVE   SWELL
                       AIR SEA DIR/SP/G            HT/PER HT/PER/DIR
                 (UTC) (F)     (DEG/KT/KT) (MB)    (FT/S) (FT/S/D)
UPR LAKE MARION  NOT AVBL
WINYAH BAY       0300   80     100/  5     1019.0
LAKE MURRAY      0400   78      CALM  /  3 1020.0F
ACE BASIN NERRS  NOT AVBL
FORT PULASKI     NOT AVBL
SAPELO ISLAND    0400   80      90/  6     1019.0S

$$

ANZ835-935-AMZ111-154-330-350-352-354-370-450-454-472-300500-
...C-MAN AND BUOY OBSERVATIONS...

STATION/POSITION TIME  TEMP    WIND        PRES    WAVE   SWELL
                       AIR SEA DIR/SP/G            HT/PER HT/PER/DIR
                 (UTC) (F)     (DEG/KT/KT) (MB)    (FT/S) (FT/S/D)
BUOY 41004       0350   80 85  100/  8/ 12 1019.6R   4/11   3/11
BUOY 41008       0350   82 85  100/ 12/ 14 1019.4R   4/11   3/ 90/11
FOLLY BEACH CMAN 0400   81      80/ 10/ 13 1020.2R
CAPERS NEARSHORE 0308   81      80/ 10/ 14 1020.3R
FRIPP NEARSHORE  0300   81     100/ 12/ 14 1019.3S


STATION/POSITION TIME  TEMP    WIND        PRES    WAVE   SWELL
                       AIR SEA DIR/SP/G            HT/PER HT/PER/DIR
                 (UTC) (F)     (DEG/KT/KT) (MB)    (FT/S) (FT/S/D)
5E ST. MARYS GA  0321      86                N/A     4/12   2/130/12
FRYING PAN BUOY  0350   81 81   70/ 12/ 14 1020.5R   5/11   3/140/11
BUOY 41025       0350   79 82   20/ 14/ 16 1019.0R   4/11   3/110/11
CAPE LOOKOUT NC  0400   76     360/  6/  6 1019.9S
BUOY 41002       0350   83 84  240/  8/ 10 1020.5R   5/11   5/100/11
BUOY 41010       0320   84 85  120/ 17/ 21 1018.7S
ST AUGUSTINE FL  0400   80 85  150/ 37/ 41 1020.1R


$$


USA.gov is the U.S. government's official web portal to all federal, state and local government web resources and services.